Tracking 30072 objects as of 14-Jan-2025
HD Live streaming from Space Station
objects crossing your sky now

FENGYUN 1C DEB

Track FENGYUN 1C DEB now!
10-day predictions


NORAD ID: 30528
Int'l Code: 1999-025AJS
Perigee: 751.4 km
Apogee: 962.8 km
Inclination: 98.3 °
Period: 101.9 minutes
Semi major axis: 7228 km
RCS: 0.0209 m2 (small)
Launch date: May 10, 1999
Source: People's Republic of China (PRC)
Launch site: Taiyaun Space Center, China (TSC)

Note: This is SATELLITE DEBRIS
Your satellite tracking list
Your tracking list is empty




NASA's NSSDC Master Catalog

Two Line Element Set (TLE):
1 30528U 99025AJS 25013.93274397  .00000904  00000-0  45839-3 0  9993
2 30528  98.2845 268.8483 0146195 106.4122 314.9051 14.12752690924372
Source of the keplerian elements: AFSPC